Location: Mascot Post Office (historical)
(40.2645°N, 99.5462°W)
Time: 01:41:38
(UTC+00:00)

Gbstr 26 Del rocket - Pass Details

Date: 14 July 2020
Orbit: 493 x 1264 km, 51.8° (Epoch: 14 August)

Event Time Altitude Azimuth Distance (km) Brightness Sun altitude
Rises 03:05:19 0° 221° (SW) 2,711 6.4 -9.9°
Reaches altitude 10° 03:07:38 10° 217° (SW) 1,756 5.4 -10.2°
Maximum altitude 03:11:25 56° 139° (SE) 594 2.6 -10.8°
Drops below altitude 10° 03:15:05 10° 60° (ENE) 1,688 5.1 -11.3°
Sets 03:17:16 0° 56° (NE) 2,593 6.1 -11.6°
